STARLINK-35766, 67181

Orbit data source: Space-Track

STARLINK-35766, 67181 is a payload satellite owned by SpaceX/Seattle (US) in LEO that was launched on Wed, 17 Dec 2025 UTC via an FALCON 9 launch vehicle from the Air Force Eastern Test Range (AFETR). Payload-class satellites include a variety of spacecraft equipped with specific instruments for various scientific and technological missions. These include communications satellites like Starlink; space stations such as the ISS; scientific satellites like the Hubble; Earth observation satellites from companies like Planet Labs, Umbra, and HawkEye 360; GPS; miniature CubeSats for education and research; and military/defense satellites.

Loading next visibility...
Identifier
67181, 2025-303U
Orbit
LEO
Country
Flag of USUS
Related business
Manufacturer
SpaceX/Seattle
Mission
Operational Commercial Communications
Bus & Motor
STARLINK V2MO, Unknown motor
Mass
575 kg wet, ~530 kg dry
Launch date (UTC)
2025-12-17 (6 months ago)
Launch vehicle
FALCON 9
Launch site
Air Force Eastern Test Range (AFETR)
Object type
Payload
Rocket body
Debris
Shape & HBR
Box + 2 Pan, 17.7 m
Radar Cross Section
36.964 m², Large (>1 m²)

Expand to show TLE details & history
Last TLE update: 17 hours ago

TLE from 17 hours ago
0 STARLINK-35766
1 67181U 25303U   26171.18906928  .00009220  00000-0  34399-3 0  9990
2 67181  43.0006  91.6299 0001393 270.6696  89.3996 15.27596173 28411
Epoch: 2026-06-20T04:32Z
TLE epoch observation values (Epoch: 2026-06-20T04:32:15.585Z)
Latitude
-0.00003°
Longitude
115.15766°
Altitude
482.766 km
Speed
7.626 km/s
True Right ascension
06h 06m 31s
True Declination
0° 00' 00"
Sunlit
Object was in daylight at epoch
Visualization orbit readout
Latitude
Unknown
Longitude
Unknown
Altitude
Unknown
Speed
Unknown
Apparent Right ascension
Unknown
Apparent Declination
Unknown
Sunlit
N/A
Visualization observer readout
Local Sidereal Time
08:32:44
Azimuth
Unknown
Elevation
Unknown
Doppler factor
Unknown
Orbital elements
Apogee altitude
485.902 km
Perigee altitude
483.99 km
Semi-major axis
6,863.083 km
Eccentricity
0.00014
Inclination
43.0006°
RAAN
91.6299°
Arg. of periapsis
270.6696°
True anomaly
89.41556°
Mean anomaly
89.3996°
Eccentric anomaly
89.40758°
Mean motion
3.81737 °/min
Orbital period
94.31 mins
BSTAR
0.00034399
Loading maneuver chart data...
Computing Atmospheric mass density...
Loading historical data...
Loading historical data...
Loading historical data...
Loading historical data...
Loading historical data...
Loading historical data...
Loading historical data...

Documentation

Showing up to 5 results
|